Wind_Speed
3 3 2 3 3 3 2 3 3 3 4 4 4 4 4 4 3 3 3 3 4 5 6 7 7 8 9 10 11 11 11 11 12 13 13 13 13 13 13 14 15 16 16
3 3 2 3 3 2 2 3 3 3 4 4 4 4 4 4 3 4 3 3 4 5 7 7 8 8 9 10 11 11 11 11 12 13 13 13 12 13 13 14 15 15 15
3 3 3 3 3 3 3 3 4 4 4 4 3 4 3 3 3 4 3 3 4 5 6 7 7 8 9 10 10 11 11 12 12 13 13 13 13 13 14 14 15 15 16
3 3 3 3 3 3 3 3 4 4 4 4 3 3 3 4 4 4 4 4 5 5 6 6 7 7 8 10 10 10 11 12 12 12 13 13 14 14 15 15 15 15 15
3 3 3 3 3 3 3 3 3 3 3 3 3 3 4 4 4 4 4 4 5 6 6 7 7 7 8 9 9 10 10 11 11 12 12 13 14 15 15 15 16 16 15
3 3 3 3 3 3 3 3 3 3 3 3 3 3 3 4 4 4 4 4 5 6 6 6 6 7 7 8 9 10 10 10 11 11 12 13 14 15 16 16 16 17 16
3 3 3 3 3 3 3 3 3 3 3 3 3 3 4 4 4 4 4 5 5 5 6 6 7 7 7 8 9 10 10 10 10 11 11 12 14 14 15 16 16 16 17
4 4 4 4 4 4 3 4 4 3 3 3 3 4 4 5 5 5 5 5 5 6 6 6 7 7 7 8 9 10 10 11 10 11 11 11 12 13 14 14 15 16 16
4 4 5 5 5 4 4 4 4 4 4 4 4 4 4 4 5 5 5 5 6 6 6 7 7 8 7 8 8 9 10 11 10 11 11 12 12 13 14 15 16 16 17
5 5 5 5 5 5 5 5 4 4 4 5 5 5 5 5 6 6 6 6 6 7 7 7 8 8 7 7 8 9 9 10 11 11 12 13 14 14 15 16 17 18 18
6 5 6 6 6 6 6 6 5 5 5 5 5 6 6 6 6 7 7 6 7 7 8 9 9 10 9 8 9 9 10 11 12 12 13 14 15 16 16 17 18 18 19
7 6 6 6 6 6 6 6 6 6 6 5 6 6 6 7 7 7 7 7 8 8 9 9 10 11 11 10 10 11 12 13 13 13 14 15 16 16 17 18 19 19 20
8 7 7 7 7 7 6 6 7 6 6 6 7 7 7 8 8 8 8 9 9 9 10 11 11 11 12 12 11 12 13 13 14 15 15 16 17 18 18 19 20 21 22
9 9 8 8 8 7 7 8 7 7 7 7 7 8 8 8 9 9 9 9 10 10 11 12 13 13 13 14 14 14 14 15 15 16 17 17 18 19 20 20 21 22 23
10 10 10 9 9 8 8 8 8 8 8 8 8 8 8 9 9 9 10 10 11 11 12 13 14 14 14 15 15 16 17 17 17 17 18 19 20 20 21 22 23 24 25
11 11 11 10 10 10 10 9 9 9 9 9 9 9 10 10 10 10 11 11 12 13 14 14 15 15 15 16 17 17 18 18 19 19 20 21 22 23 23 24 25 26 27
12 12 11 11 11 11 11 11 11 10 10 10 10 11 11 11 11 12 13 13 14 15 15 16 16 17 17 18 19 19 20 20 21 22 22 23 24 25 26 27 27 28 29
12 12 12 12 12 12 12 12 12 12 12 12 12 12 12 12 13 14 14 15 16 16 17 17 18 18 19 20 20 21 22 23 23 24 25 26 27 28 28 29 30 31 31
13 13 13 13 13 13 13 14 14 14 14 13 13 13 13 14 14 15 16 16 16 17 18 19 19 20 20 21 22 23 24 25 26 27 28 29 30 30 31 32 33 34 35
14 14 14 14 14 14 14 14 15 15 15 14 14 14 15 15 16 17 17 18 18 19 19 20 21 22 22 24 25 26 27 28 29 30 31 32 33 34 35 36 36 37 37
15 15 15 15 15 15 15 16 16 16 16 15 16 16 17 17 18 18 18 19 20 21 22 23 23 24 25 26 27 28 29 30 31 32 33 35 36 37 37 38 39 39 39
16 16 15 16 16 17 17 17 17 17 17 17 17 17 18 19 19 19 20 21 22 23 24 24 25 26 27 28 29 30 31 32 33 35 36 37 38 39 40 41 41 41 41
17 16 16 17 17 17 17 18 18 18 19 19 19 20 20 20 21 21 22 23 24 25 26 27 27 28 30 31 32 33 33 34 35 37 38 39 40 41 42 42 43 43 43
17 17 17 17 17 17 18 18 19 19 20 20 20 21 21 21 22 23 24 24 25 27 28 29 30 31 32 33 34 35 35 36 37 39 40 41 42 43 43 44 44 44 44
18 18 17 17 17 18 18 19 20 20 20 20 21 21 22 23 24 25 26 26 27 28 30 31 32 33 35 36 36 37 38 39 40 41 42 43 43 44 44 44 45 45 45
18 17 17 17 18 19 19 19 19 20 20 20 21 22 23 24 26 27 27 28 30 31 33 34 35 36 37 38 38 39 41 42 42 43 44 45 45 45 44 44 45 45 46
Wind_Direction
284 286 295 311 324 333 334 343 344 348 348 348 342 333 330 331 330 319 302 289 278 273 268 263 259 257 255 255 257 255 253 254 256 256 257 255 253 253 251 248 245 246 251
285 289 285 289 303 319 331 342 346 342 345 343 338 337 339 333 327 317 314 299 288 282 276 268 263 259 258 257 258 256 254 256 257 257 257 255 254 253 252 250 247 247 253
287 286 288 288 300 310 319 329 340 344 342 341 340 338 334 328 322 324 317 298 294 291 286 278 272 265 261 260 259 258 257 257 258 257 257 256 257 256 256 253 250 251 255
275 274 282 291 304 314 320 325 330 329 334 339 342 344 338 335 336 337 329 314 307 304 299 292 287 275 267 264 260 261 262 261 260 260 261 258 258 257 257 256 254 254 258
266 271 283 297 311 321 326 331 333 333 335 336 344 349 349 350 341 341 334 322 314 311 307 301 293 284 279 270 265 267 268 264 265 266 263 260 258 258 257 256 257 256 257
266 274 285 297 307 311 317 325 332 335 339 343 348 347 350 355 353 345 336 330 324 321 316 309 303 296 286 277 271 273 273 272 270 273 269 263 261 259 258 259 259 259 257
269 276 288 294 298 301 310 316 321 324 328 335 336 336 337 342 345 343 336 332 329 328 326 319 311 302 292 283 278 279 277 276 278 278 277 269 264 260 261 261 263 262 259
267 277 284 288 291 294 300 303 306 311 312 317 323 325 327 325 328 334 335 331 326 325 329 329 323 314 298 291 287 286 283 281 281 281 282 279 271 265 265 265 265 266 264
271 279 283 282 280 284 291 297 297 302 305 308 314 314 316 316 322 325 326 326 325 323 327 331 327 315 306 299 295 294 290 284 282 281 282 281 276 269 267 269 271 271 270
266 276 280 279 278 281 287 292 292 292 294 302 306 309 308 306 309 313 317 323 323 322 323 326 326 317 312 305 302 300 297 288 286 285 282 279 278 276 273 271 272 273 272
260 269 277 279 279 281 284 288 291 291 291 295 300 305 307 306 309 309 311 314 317 317 317 321 324 321 317 312 307 305 300 294 290 289 288 284 280 278 276 275 274 274 275
260 268 272 277 275 275 278 284 288 296 296 298 301 305 306 308 311 310 311 313 313 314 314 317 319 320 319 314 311 310 305 302 298 294 292 290 287 285 282 281 280 278 276
261 267 271 273 274 274 275 281 286 290 297 303 304 304 303 303 305 306 308 310 310 311 313 315 317 317 316 315 312 310 306 302 301 298 294 291 290 289 287 286 284 283 282
261 262 266 267 270 275 278 281 282 283 288 294 299 303 303 302 303 303 304 306 308 309 310 312 313 312 314 313 311 311 309 305 301 299 297 294 292 290 289 288 288 287 287
261 260 261 263 267 271 277 281 282 284 288 292 293 295 298 300 301 302 302 303 305 307 308 310 311 311 311 311 310 310 309 308 306 302 300 299 297 295 293 292 290 289 288
260 258 259 263 265 269 275 281 284 282 284 287 290 292 295 298 301 302 301 302 304 305 306 308 310 311 310 310 310 309 308 307 305 304 304 302 301 299 296 295 293 292 290
262 261 260 264 267 269 272 277 280 281 283 287 289 290 292 295 297 301 302 300 302 303 305 307 307 307 307 306 307 308 307 305 305 304 303 302 301 299 297 296 295 294 293
263 263 264 267 269 271 273 276 278 281 281 286 289 291 294 296 298 300 301 302 301 301 302 304 306 306 305 305 306 306 306 305 305 304 303 302 301 299 297 296 295 295 294
261 262 264 266 269 272 273 275 277 278 281 284 286 290 294 297 298 299 300 302 303 302 302 303 304 304 304 303 304 304 304 305 304 303 302 301 301 300 299 298 296 295 294
262 263 263 265 268 271 274 275 276 277 280 283 285 289 293 295 297 299 300 302 304 305 304 303 303 303 303 303 303 304 305 305 304 303 302 302 301 300 300 299 298 296 294
264 262 262 265 268 270 273 275 276 277 278 282 285 289 292 294 297 298 300 301 303 304 304 304 303 303 303 304 304 305 305 304 304 304 302 302 302 302 301 300 299 297 295
265 263 262 266 270 272 274 275 277 278 279 281 285 288 292 294 296 297 298 300 301 302 303 304 303 303 304 304 304 305 305 304 303 303 303 302 302 302 302 300 299 298 296
265 266 267 270 271 271 273 276 278 279 280 281 284 286 289 292 295 298 299 299 300 300 301 302 303 304 304 304 305 305 305 304 304 303 303 302 302 302 301 300 299 298 297
265 269 270 270 270 272 274 276 278 280 281 282 283 285 288 292 295 296 297 299 301 302 301 301 302 303 304 305 306 306 305 305 305 305 304 304 303 302 302 300 299 298 297
269 272 271 270 272 274 278 279 280 280 280 281 283 286 290 293 295 296 297 299 300 300 301 303 303 304 304 305 305 306 306 306 306 306 305 305 304 303 302 300 299 299 298
270 272 273 272 274 278 280 282 283 282 282 283 285 288 291 294 296 297 297 298 299 301 302 303 304 305 306 306 306 306 306 306 306 307 306 306 305 304 302 300 300 299 298
Height
5880 5879 5879 5879 5878 5878 5877 5877 5876 5875 5875 5874 5873 5873 5872 5871 5871 5870 5870 5869 5870 5870 5869 5870 5870 5870 5871 5871 5871 5872 5872 5873 5873 5873 5874 5874 5875 5875 5876 5877 5878 5879 5880
5879 5879 5879 5878 5878 5877 5877 5876 5876 5875 5874 5874 5873 5872 5871 5871 5870 5870 5869 5869 5869 5868 5868 5868 5868 5868 5869 5869 5869 5869 5870 5870 5870 5870 5871 5871 5872 5872 5873 5873 5874 5875 5876
5878 5878 5878 5878 5877 5877 5876 5876 5875 5875 5874 5873 5873 5872 5871 5871 5870 5869 5869 5868 5868 5867 5867 5866 5866 5866 5866 5866 5867 5867 5867 5867 5867 5867 5868 5868 5869 5869 5870 5870 5871 5872 5872
5878 5878 5878 5877 5877 5877 5876 5876 5875 5875 5874 5873 5872 5872 5871 5870 5870 5869 5869 5868 5867 5867 5866 5865 5865 5864 5864 5864 5864 5864 5864 5864 5864 5864 5864 5865 5865 5866 5866 5867 5868 5869 5869
5877 5877 5877 5877 5877 5876 5876 5875 5875 5874 5874 5873 5872 5871 5871 5870 5869 5869 5868 5867 5866 5866 5865 5864 5863 5862 5862 5862 5862 5861 5861 5861 5861 5861 5861 5861 5861 5862 5863 5864 5865 5865 5866
5877 5877 5876 5876 5876 5876 5875 5875 5874 5874 5873 5872 5872 5871 5870 5870 5869 5868 5867 5866 5865 5865 5864 5863 5862 5861 5860 5860 5860 5859 5859 5859 5859 5858 5857 5857 5857 5858 5859 5860 5861 5862 5862
5876 5876 5875 5875 5875 5875 5875 5874 5874 5873 5872 5872 5871 5871 5870 5869 5869 5868 5867 5866 5865 5864 5863 5862 5861 5860 5859 5858 5858 5857 5857 5857 5857 5856 5854 5853 5852 5853 5855 5857 5858 5858 5859
5875 5875 5875 5874 5874 5874 5874 5873 5873 5872 5872 5871 5871 5870 5870 5869 5868 5867 5866 5865 5864 5863 5862 5861 5860 5858 5857 5857 5856 5855 5855 5855 5854 5853 5852 5850 5849 5850 5852 5854 5854 5855 5855
5874 5874 5874 5873 5873 5873 5873 5872 5872 5871 5871 5870 5870 5870 5869 5868 5867 5866 5865 5864 5863 5862 5861 5860 5859 5858 5856 5855 5855 5854 5853 5852 5852 5851 5850 5849 5849 5849 5850 5851 5851 5851 5851
5873 5873 5872 5872 5872 5872 5871 5871 5870 5870 5870 5869 5869 5868 5868 5867 5866 5865 5865 5864 5863 5861 5860 5859 5858 5856 5855 5854 5853 5852 5851 5850 5850 5849 5848 5848 5847 5847 5847 5848 5847 5847 5847
5871 5871 5871 5871 5871 5870 5870 5869 5869 5869 5868 5868 5868 5867 5866 5866 5865 5864 5863 5863 5862 5860 5859 5858 5857 5855 5853 5852 5851 5850 5849 5848 5848 5847 5846 5845 5845 5844 5844 5844 5843 5843 5843
5870 5870 5870 5869 5869 5869 5869 5868 5868 5868 5867 5867 5866 5866 5865 5864 5864 5863 5862 5861 5860 5859 5858 5857 5855 5854 5852 5851 5849 5848 5847 5846 5845 5845 5844 5843 5842 5841 5841 5840 5839 5839 5838
5868 5868 5868 5868 5868 5867 5867 5867 5867 5866 5866 5865 5865 5864 5864 5863 5862 5861 5860 5859 5858 5858 5856 5855 5854 5852 5851 5849 5847 5846 5845 5844 5843 5842 5841 5840 5839 5838 5837 5836 5834 5834 5833
5866 5866 5866 5866 5866 5866 5866 5865 5865 5865 5864 5864 5863 5863 5862 5861 5860 5860 5859 5858 5857 5856 5854 5853 5852 5850 5849 5847 5845 5844 5843 5841 5840 5839 5837 5836 5835 5834 5833 5831 5830 5828 5827
5863 5864 5864 5864 5864 5864 5864 5864 5864 5863 5863 5862 5862 5861 5860 5859 5858 5858 5857 5856 5855 5854 5852 5851 5849 5848 5846 5845 5843 5841 5840 5838 5837 5835 5834 5832 5831 5829 5828 5826 5824 5823 5821
5861 5861 5861 5862 5862 5862 5862 5862 5861 5861 5860 5860 5860 5859 5858 5857 5856 5855 5854 5853 5852 5851 5850 5848 5846 5845 5843 5842 5840 5838 5836 5835 5833 5831 5829 5828 5826 5824 5822 5820 5818 5816 5814
5858 5858 5859 5859 5859 5860 5859 5859 5859 5858 5858 5857 5857 5856 5855 5854 5854 5853 5851 5850 5849 5848 5846 5845 5843 5841 5840 5838 5836 5834 5832 5830 5828 5826 5824 5822 5820 5818 5815 5813 5811 5809 5806
5855 5856 5856 5856 5856 5856 5856 5856 5856 5856 5855 5855 5854 5853 5852 5851 5850 5849 5848 5847 5845 5844 5843 5841 5839 5837 5836 5834 5832 5830 5827 5825 5823 5820 5818 5815 5813 5810 5808 5805 5803 5800 5798
5852 5852 5853 5853 5853 5853 5853 5853 5853 5852 5852 5851 5851 5850 5849 5848 5847 5846 5844 5843 5841 5840 5838 5837 5835 5833 5831 5829 5827 5824 5822 5819 5817 5814 5811 5808 5805 5803 5799 5796 5794 5791 5788
5848 5849 5849 5849 5849 5849 5849 5849 5849 5848 5848 5848 5847 5846 5845 5844 5843 5842 5841 5839 5837 5836 5834 5832 5830 5828 5825 5823 5821 5818 5815 5812 5809 5806 5803 5800 5797 5794 5790 5787 5784 5780 5777
5845 5845 5845 5846 5845 5845 5845 5845 5845 5844 5844 5844 5843 5842 5841 5840 5839 5837 5836 5834 5833 5831 5829 5827 5824 5822 5819 5817 5814 5811 5808 5805 5802 5798 5795 5791 5787 5784 5780 5776 5772 5768 5765
5841 5841 5841 5841 5841 5841 5841 5841 5840 5840 5839 5839 5838 5838 5837 5835 5834 5833 5831 5829 5828 5825 5823 5821 5818 5816 5813 5810 5807 5804 5801 5798 5794 5790 5786 5782 5777 5773 5769 5765 5761 5757 5753
5837 5837 5837 5837 5837 5837 5836 5836 5835 5835 5834 5834 5833 5833 5832 5831 5829 5828 5826 5824 5822 5819 5817 5815 5812 5809 5806 5803 5800 5796 5792 5788 5784 5780 5776 5772 5767 5762 5757 5752 5748 5744 5740
5832 5832 5832 5832 5832 5832 5831 5831 5830 5829 5829 5828 5828 5827 5826 5825 5823 5822 5820 5818 5815 5813 5811 5808 5805 5802 5798 5794 5791 5787 5783 5779 5774 5769 5765 5761 5755 5751 5745 5740 5736 5731 5727
5828 5828 5827 5827 5827 5827 5826 5826 5825 5823 5823 5822 5822 5821 5820 5819 5817 5816 5814 5812 5809 5806 5803 5800 5797 5793 5789 5785 5781 5777 5772 5768 5763 5758 5753 5748 5743 5739 5734 5728 5723 5718 5713
5823 5823 5823 5823 5822 5822 5821 5820 5819 5818 5817 5816 5816 5815 5814 5813 5811 5809 5807 5805 5802 5799 5796 5792 5788 5784 5780 5776 5771 5766 5761 5757 5751 5747 5741 5736 5731 5725 5722 5717 5710 5705 5700